Location: Chefe Valiua
(16.5342°S, 37.2214°E)
Time: 00:05:13
(UTC+00:00)

N. Korean satellite - Visible Passes

Search period start: 18 June 2021 00:00
Search period end: 28 June 2021 00:00
Orbit: 450 x 500 km, 97.2° (Epoch: 17 June)

Date Brightness Start Highest point End Pass type
(mag) Time Alt. Az. Time Alt. Az. Time Alt. Az.
18 Jun 6.7 02:33:04 10° N 02:36:39 54° W 02:37:00 52° WSW visible
19 Jun 7.4 02:05:54 10° NNE 02:09:25 50° E 02:09:25 50° E visible
20 Jun 9.3 01:39:39 10° ENE 01:41:51 19° E 01:41:51 19° E visible
20 Jun 8.5 03:13:30 10° NW 03:15:22 13° W 03:16:01 13° W visible
21 Jun 7.2 02:44:41 10° NNW 02:48:03 34° W 02:48:25 33° W visible
22 Jun 6.6 02:17:09 10° NNE 02:20:48 80° E 02:20:50 80° ESE visible
22 Jun 9.6 15:30:22 10° SW 15:31:50 12° WSW 15:33:18 10° W visible
23 Jun 8.6 01:50:27 10° NE 01:53:14 27° E 01:53:14 27° E visible
24 Jun 10.0 01:25:26 10° E 01:25:38 10° E 01:25:38 10° E visible
24 Jun 7.8 02:56:28 10° NNW 02:59:25 23° W 02:59:47 23° W visible
25 Jun 6.5 02:28:30 10° N 02:32:08 65° W 02:32:11 64° W visible
26 Jun 7.8 02:01:25 10° NNE 02:04:34 41° E 02:04:34 41° E visible
27 Jun 9.5 01:35:23 10° ENE 01:36:57 15° E 01:36:57 15° E visible
27 Jun 8.3 03:08:30 10° NW 03:10:45 16° W 03:11:07 15° W visible
